Tracking 20370 objects as of 20-Feb-2020
HD Live streaming from Space Station
objects crossing your sky now
Track the group of recently launched Starlink satellites

MOLNIYA 3-41

Track MOLNIYA 3-41 now!
MOLNIYA 3-41 is classified as:


NORAD ID: 21706
Int'l Code: 1991-065A
Perigee: 2,019.2 km
Apogee: 37,701.6 km
Inclination: 64.2 °
Period: 704.7 minutes
Semi major axis: 26231 km
RCS: 14.2786 m2 (large)
Launch date: September 17, 1991
Source: Commonwealth of Independent States (former USSR) (CIS)
Launch site: PLESETSK MISSILE AND SPACE COMPLEX (PKMTR)
aabbcc
Your satellite tracking list
Your tracking list is empty




NASA's NSSDC Master Catalog

Two Line Element Set (TLE):
1 21706U 91065A   20046.46904959 -.00000269 +00000-0 +29671-1 0  9999
2 21706 064.2171 255.2566 6801468 265.8531 016.1832 02.04348040209471
Source of the keplerian elements: AFSPC